Location: Atherton
(17.2661°S, 145.4859°E)
Time: 02:31:22
(UTC+10:00)

Transit 4A - Visible Passes

Search period start: 24 June 2025 00:00
Search period end: 04 July 2025 00:00
Orbit: 867 x 974 km, 66.8° (Epoch: 22 June)

Date Brightness Start Highest point End Pass type
(mag) Time Alt. Az. Time Alt. Az. Time Alt. Az.
27 Jun 10.1 20:20:24 10° N 20:20:52 12° N 20:20:52 12° N visible
28 Jun 9.8 20:28:44 10° NNW 20:30:15 19° N 20:30:15 19° N visible
29 Jun 9.6 20:37:28 10° NNW 20:39:44 25° NNW 20:39:44 25° NNW visible
30 Jun 10.5 05:55:27 10° SSE 05:58:44 14° ESE 06:02:00 10° E visible
30 Jun 9.4 19:02:52 10° NE 19:05:42 16° ENE 19:05:42 16° ENE visible
30 Jun 9.6 20:46:35 10° NW 20:49:15 26° WNW 20:49:15 26° WNW visible
01 Jul 10.1 06:02:46 10° SSE 06:07:44 23° ESE 06:12:40 10° ENE visible
01 Jul 8.7 19:10:04 10° NNE 19:14:52 27° ENE 19:15:17 27° E visible
01 Jul 9.9 20:56:11 10° WNW 20:58:49 21° W 20:58:49 21° W visible
02 Jul 9.4 06:10:48 10° S 06:16:39 37° ESE 06:22:28 10° NE visible
02 Jul 8.0 19:18:04 10° N 19:23:33 46° ENE 19:24:53 39° ESE visible
02 Jul 10.3 21:06:29 10° W 21:08:25 15° W 21:08:25 15° W visible
03 Jul 8.6 06:19:12 10° SSW 06:25:30 60° ESE 06:31:46 10° NNE visible
03 Jul 7.6 19:26:29 10° NNW 19:32:16 78° ENE 19:34:31 40° SSE visible
